EW2974 Weather Reports


Display with metric or nautical units.
time (UTC)temp
F
wind
direction
speed
MPH
gust
MPH
rain 1hr
in
rain 24hr
in
rain mn
in
humidity
%
barometer
mb
20260906191406 76 355 0.0 0.0 0.00 0.00 0.00 61 1015.4
20260906190905 76 355 0.0 0.0 0.00 0.00 0.00 66 1015.5
20260906190406 75 355 0.0 0.0 0.00 0.00 0.00 65 1015.5
20260906185905 76 355 0.0 0.0 0.00 0.00 0.00 64 1015.6
20260906185405 77 355 0.0 0.0 0.00 0.00 0.00 63 1015.4
20260906184406 77 137 0.0 1.0 0.00 0.00 0.00 62 1015.6
20260906183905 76 332 0.0 1.0 0.00 0.00 0.00 64 1015.8
20260906182905 76 277 0.0 0.0 0.00 0.00 0.00 66 1015.7
20260906182405 76 277 0.0 1.0 0.00 0.00 0.00 69 1015.5
20260906181905 75 278 0.0 0.0 0.00 0.00 0.00 66 1015.6
20260906180905 75 278 0.0 3.0 0.00 0.00 0.00 66 1015.7
20260906180405 75 248 0.0 0.0 0.00 0.00 0.00 66 1015.7
20260906175905 75 248 0.0 0.0 0.00 0.00 0.00 67 1015.7
20260906173905 75 146 0.0 0.0 0.00 0.00 0.00 70 1015.9
20260906173405 74 146 0.0 0.0 0.00 0.00 0.00 70 1016.0
20260906172905 73 146 0.0 0.0 0.00 0.00 0.00 69 1016.1
20260906172405 74 146 0.0 0.0 0.00 0.00 0.00 67 1016.1
20260906171905 74 146 0.0 0.0 0.00 0.00 0.00 69 1016.1
20260906171405 74 146 0.0 0.0 0.00 0.00 0.00 66 1016.2
20260906170905 75 146 0.0 0.0 0.00 0.00 0.00 69 1016.1
20260906170406 74 146 0.0 0.0 0.00 0.00 0.00 70 1016.0
20260906165905 74 146 0.0 0.0 0.00 0.00 0.00 65 1016.0
20260906165405 75 146 0.0 0.0 0.00 0.00 0.00 69 1016.0
20260906164905 74 52 0.0 3.0 0.00 0.00 0.00 66 1016.1
20260906163905 74 35 0.0 0.0 0.00 0.00 0.00 70 1016.1
20260906163405 74 29 0.0 0.0 0.00 0.00 0.00 67 1016.2
20260906162905 74 28 0.0 0.0 0.00 0.00 0.00 68 1016.2
20260906161905 73 31 0.0 1.0 0.00 0.00 0.00 68 1016.4
20260906161405 73 32 0.0 0.0 0.00 0.00 0.00 68 1016.4
20260906160905 73 31 1.0 3.0 0.00 0.00 0.00 69 1016.4
20260906160406 73 327 0.0 0.0 0.00 0.00 0.00 69 1016.3
20260906155905 72 327 0.0 0.0 0.00 0.00 0.00 71 1016.5
20260906154905 72 330 0.0 0.0 0.00 0.00 0.00 68 1016.5
20260906154405 72 346 0.0 0.0 0.00 0.00 0.00 71 1016.4
20260906153905 71 346 0.0 0.0 0.00 0.00 0.00 74 1016.5
20260906153406 71 298 0.0 0.0 0.00 0.00 0.00 74 1016.5
20260906152908 71 298 0.0 0.0 0.00 0.00 0.00 74 1016.6
20260906152405 70 298 0.0 0.0 0.00 0.00 0.00 76 1016.7
20260906151905 70 298 0.0 5.0 0.00 0.00 0.00 75 1016.5
20260906151405 70 30 0.0 1.0 0.00 0.00 0.00 76 1016.5
20260906150905 69 31 0.0 0.0 0.00 0.00 0.00 81 1016.5
20260906150405 69 31 0.0 0.0 0.00 0.00 0.00 79 1016.4
20260906145905 69 31 0.0 0.0 0.00 0.00 0.00 80 1016.4
20260906145405 68 31 0.0 0.0 0.00 0.00 0.00 81 1016.4
20260906144905 68 31 0.0 0.0 0.00 0.00 0.00 81 1016.4
20260906144405 67 31 2.0 5.0 0.00 0.00 0.00 81 1016.4
20260906143905 67 30 0.0 0.0 0.00 0.00 0.00 84 1016.3
20260906142905 66 30 0.0 0.0 0.00 0.00 0.00 87 1016.4
20260906142405 65 30 0.0 0.0 0.00 0.00 0.00 87 1016.4
20260906141905 65 30 0.0 0.0 0.00 0.00 0.00 88 1016.4
20260906141405 65 30 0.0 0.0 0.00 0.00 0.00 90 1016.3
20260906140905 64 30 0.0 0.0 0.00 0.00 0.00 90 1016.3
20260906140406 64 30 0.0 0.0 0.00 0.00 0.00 92 1016.2
20260906135906 63 30 0.0 0.0 0.00 0.00 0.00 93 1016.2
20260906135405 63 30 0.0 0.0 0.00 0.00 0.00 94 1016.1
20260906134905 62 30 0.0 0.0 0.00 0.00 0.00 95 1016.1
20260906134405 62 30 0.0 0.0 0.00 0.00 0.00 95 1016.1
20260906133907 62 30 0.0 0.0 0.00 0.00 0.00 96 1016.1
20260906133405 62 30 0.0 0.0 0.00 0.00 0.00 96 1016.1
20260906132906 61 30 0.0 0.0 0.00 0.00 0.00 96 1016.1
20260906131905 61 30 0.0 0.0 0.00 0.00 0.00 96 1016.2
20260906130905 60 30 0.0 0.0 0.00 0.00 0.00 96 1016.3
20260906130405 60 30 0.0 1.0 0.00 0.00 0.00 96 1016.1
20260906125905 59 59 0.0 0.0 0.00 0.00 0.00 96 1016.1
20260906125405 59 59 0.0 0.0 0.00 0.00 0.00 96 1016.1
20260906124905 58 59 0.0 0.0 0.00 0.00 0.00 96 1016.1
20260906123905 58 59 0.0 0.0 0.00 0.00 0.00 96 1016.1
20260906123405 57 59 0.0 0.0 0.00 0.00 0.00 96 1016.1
20260906122905 57 59 0.0 0.0 0.00 0.00 0.00 96 1016.0
20260906122405 57 59 0.0 0.0 0.00 0.00 0.00 96 1016.0
20260906121905 56 59 0.0 0.0 0.00 0.00 0.00 95 1016.0
20260906121405 56 59 0.0 0.0 0.00 0.00 0.00 95 1016.0
20260906115905 55 59 0.0 0.0 0.00 0.00 0.00 95 1015.8
20260906115405 55 59 0.0 0.0 0.00 0.00 0.00 95 1015.7
20260906114905 55 59 0.0 0.0 0.00 0.00 0.00 95 1015.7
20260906114405 55 59 0.0 0.0 0.00 0.00 0.00 95 1015.5
20260906112905 55 59 0.0 0.0 0.00 0.00 0.00 95 1015.3
20260906112405 55 59 0.0 0.0 0.00 0.00 0.00 95 1015.3
20260906111905 55 59 0.0 0.0 0.00 0.00 0.00 95 1015.3
20260906110905 55 59 0.0 0.0 0.00 0.00 0.00 95 1015.2
20260906105905 55 59 0.0 0.0 0.00 0.00 0.00 95 1015.0
20260906105405 55 59 0.0 0.0 0.00 0.00 0.00 95 1015.0
20260906104905 55 59 0.0 0.0 0.00 0.00 0.00 95 1015.0
20260906104405 55 59 0.0 0.0 0.00 0.00 0.00 94 1014.9
20260906103905 55 59 0.0 0.0 0.00 0.00 0.00 94 1014.8
20260906103405 55 59 0.0 0.0 0.00 0.00 0.00 94 1014.9
20260906102905 55 59 0.0 0.0 0.00 0.00 0.00 95 1014.9
20260906102405 55 59 0.0 0.0 0.00 0.00 0.00 95 1014.8
20260906101905 55 59 0.0 0.0 0.00 0.00 0.00 95 1014.8
20260906101405 55 59 0.0 0.0 0.00 0.00 0.00 95 1014.7
20260906100905 55 59 0.0 0.0 0.00 0.00 0.00 95 1014.8
20260906100404 55 59 0.0 0.0 0.00 0.00 0.00 95 1014.7
20260906095405 55 59 0.0 0.0 0.00 0.00 0.00 94 1014.6
20260906094905 55 59 0.0 0.0 0.00 0.00 0.00 94 1014.6
20260906094405 55 59 0.0 0.0 0.00 0.00 0.00 94 1014.5
20260906093905 55 59 0.0 0.0 0.00 0.00 0.00 94 1014.5
20260906093405 55 59 0.0 0.0 0.00 0.00 0.00 94 1014.6
20260906092905 55 59 0.0 0.0 0.00 0.00 0.00 94 1014.6
20260906092405 55 59 0.0 0.0 0.00 0.00 0.00 94 1014.5
20260906091905 56 59 0.0 0.0 0.00 0.00 0.00 94 1014.5
20260906091405 56 59 0.0 0.0 0.00 0.00 0.00 94 1014.5
20260906090905 56 59 0.0 0.0 0.00 0.00 0.00 94 1014.5
20260906090405 56 59 0.0 0.0 0.00 0.00 0.00 94 1014.4
20260906085905 56 59 0.0 0.0 0.00 0.00 0.00 94 1014.5
20260906085405 56 59 0.0 0.0 0.00 0.00 0.00 94 1014.4
20260906084405 56 59 0.0 0.0 0.00 0.00 0.00 94 1014.3
20260906083404 56 59 0.0 0.0 0.00 0.00 0.00 94 1014.4
20260906081905 56 59 0.0 0.0 0.00 0.00 0.00 94 1014.3
20260906080905 56 59 0.0 0.0 0.00 0.00 0.00 94 1014.0
20260906080405 56 59 0.0 0.0 0.00 0.00 0.00 94 1013.9
20260906075404 56 59 0.0 0.0 0.00 0.00 0.00 94 1013.9
20260906074905 56 59 0.0 0.0 0.00 0.00 0.00 94 1014.1
20260906074404 56 59 0.0 0.0 0.00 0.00 0.00 94 1014.2
20260906073904 56 59 0.0 0.0 0.00 0.00 0.00 94 1014.2
20260906073405 56 59 0.0 0.0 0.00 0.00 0.00 94 1014.1
20260906072905 56 59 0.0 0.0 0.00 0.00 0.00 94 1014.0
20260906072405 56 59 0.0 0.0 0.00 0.00 0.00 94 1013.9
20260906071904 56 59 0.0 0.0 0.00 0.00 0.00 94 1013.9
20260906071405 56 59 0.0 0.0 0.00 0.00 0.00 94 1013.8
20260906070405 57 59 0.0 0.0 0.00 0.00 0.00 94 1013.6
20260906065904 57 59 0.0 0.0 0.00 0.00 0.00 94 1013.6
20260906065405 57 59 0.0 0.0 0.00 0.00 0.00 94 1013.6
20260906064905 57 59 0.0 0.0 0.00 0.00 0.00 94 1013.6
20260906064405 57 59 0.0 0.0 0.00 0.00 0.00 94 1013.8
20260906063905 57 59 0.0 0.0 0.00 0.00 0.00 94 1013.7
20260906063404 57 59 0.0 0.0 0.00 0.00 0.00 94 1013.7
20260906062905 57 59 0.0 0.0 0.00 0.00 0.00 94 1013.8
20260906062404 57 59 0.0 0.0 0.00 0.00 0.00 94 1013.8
20260906061405 57 59 0.0 0.0 0.00 0.00 0.00 94 1013.8
20260906060905 57 59 0.0 0.0 0.00 0.00 0.00 94 1013.8
20260906060405 57 59 0.0 0.0 0.00 0.00 0.00 93 1013.7
20260906054905 57 59 0.0 0.0 0.00 0.00 0.00 94 1013.3
20260906054404 57 59 0.0 0.0 0.00 0.00 0.00 94 1013.3
20260906053904 58 59 0.0 0.0 0.00 0.00 0.00 94 1013.4
20260906053405 58 59 0.0 0.0 0.00 0.00 0.00 93 1013.4
20260906052905 58 59 0.0 0.0 0.00 0.00 0.00 93 1013.4
20260906052405 58 59 0.0 0.0 0.00 0.00 0.00 93 1013.5
20260906051904 58 59 0.0 0.0 0.00 0.00 0.00 94 1013.4
20260906051405 58 59 0.0 0.0 0.00 0.00 0.00 94 1013.5
20260906050905 58 59 0.0 0.0 0.00 0.00 0.00 94 1013.4
20260906045905 58 59 0.0 0.0 0.00 0.00 0.00 93 1013.3
20260906045405 58 59 0.0 0.0 0.00 0.00 0.00 93 1013.4
20260906044905 58 59 0.0 0.0 0.00 0.00 0.00 93 1013.4
20260906044404 58 59 0.0 0.0 0.00 0.00 0.00 93 1013.5
20260906043905 58 59 0.0 0.0 0.00 0.00 0.00 93 1013.5
20260906043405 58 59 0.0 0.0 0.00 0.00 0.00 93 1013.5
20260906042905 59 59 0.0 0.0 0.00 0.00 0.00 93 1013.4
20260906042404 59 59 0.0 0.0 0.00 0.00 0.00 92 1013.6
20260906040905 59 59 0.0 0.0 0.00 0.00 0.00 92 1013.4
20260906040404 59 59 0.0 0.0 0.00 0.00 0.00 92 1013.5
20260906035905 59 59 0.0 0.0 0.00 0.00 0.00 92 1013.6
20260906035405 60 59 0.0 0.0 0.00 0.00 0.00 92 1013.6
20260906034904 60 59 0.0 0.0 0.00 0.00 0.00 92 1013.5
20260906034404 60 59 0.0 0.0 0.00 0.00 0.00 92 1013.5
20260906033905 60 59 0.0 0.0 0.00 0.00 0.00 92 1013.7
20260906033404 60 59 0.0 0.0 0.00 0.00 0.00 92 1013.7
20260906032904 60 59 0.0 0.0 0.00 0.00 0.00 92 1013.6
20260906032405 60 59 0.0 0.0 0.00 0.00 0.00 92 1013.7
20260906031405 60 59 0.0 0.0 0.00 0.00 0.00 91 1013.6
20260906030904 60 59 0.0 0.0 0.00 0.00 0.00 91 1013.6
20260906030405 60 59 0.0 0.0 0.00 0.00 0.00 91 1013.7
20260906025905 60 59 0.0 0.0 0.00 0.00 0.00 91 1013.5
20260906025405 60 59 0.0 0.0 0.00 0.00 0.00 91 1013.6
20260906024405 61 59 0.0 0.0 0.00 0.00 0.00 91 1013.3
20260906023905 61 59 0.0 0.0 0.00 0.00 0.00 91 1013.3
20260906023404 61 59 0.0 0.0 0.00 0.00 0.00 91 1013.3
20260906022404 61 59 0.0 0.0 0.00 0.00 0.00 91 1013.3
20260906020404 61 59 0.0 0.0 0.00 0.00 0.00 90 1013.3
20260906015905 62 59 0.0 0.0 0.00 0.00 0.00 90 1013.2
20260906015404 62 59 0.0 0.0 0.00 0.00 0.00 89 1013.3
20260906014904 62 59 0.0 0.0 0.00 0.00 0.00 89 1013.2
20260906014405 62 59 0.0 0.0 0.00 0.00 0.00 88 1013.1
20260906013905 62 59 0.0 0.0 0.00 0.00 0.00 88 1013.2
20260906013404 62 59 0.0 0.0 0.00 0.00 0.00 88 1013.2
20260906012905 63 59 0.0 0.0 0.00 0.00 0.00 88 1013.1
20260906012405 63 59 0.0 0.0 0.00 0.00 0.00 87 1013.0
20260906010905 63 59 0.0 0.0 0.00 0.00 0.00 87 1013.0
20260906005905 64 59 0.0 0.0 0.00 0.00 0.00 86 1012.9
20260906005404 64 59 0.0 0.0 0.00 0.00 0.00 86 1012.9
20260906004905 64 59 0.0 0.0 0.00 0.00 0.00 86 1012.8
20260906003404 65 59 0.0 0.0 0.00 0.00 0.00 85 1012.6
20260906002905 65 59 0.0 0.0 0.00 0.00 0.00 84 1012.5
20260906002404 65 59 0.0 0.0 0.00 0.00 0.00 83 1012.5
20260906001904 65 59 0.0 0.0 0.00 0.00 0.00 82 1012.5
20260906001404 66 59 0.0 0.0 0.00 0.00 0.00 82 1012.4
20260906000905 66 59 0.0 0.0 0.00 0.00 0.00 80 1012.5
20260906000405 67 59 0.0 0.0 0.00 0.00 0.00 80 1012.3
20260905235904 67 59 0.0 0.0 0.00 0.00 0.00 81 1012.3
20260905235405 67 59 0.0 0.0 0.00 0.00 0.00 78 1012.4
20260905234904 68 59 0.0 0.0 0.00 0.00 0.00 78 1012.3
20260905233905 68 59 0.0 0.0 0.00 0.00 0.00 74 1012.1
20260905233405 69 59 0.0 0.0 0.00 0.00 0.00 74 1012.2
20260905232904 69 59 0.0 0.0 0.00 0.00 0.00 74 1012.2
20260905232405 69 59 0.0 0.0 0.00 0.00 0.00 72 1012.1
20260905231904 70 59 0.0 0.0 0.00 0.00 0.00 72 1012.0
20260905231405 70 59 0.0 0.0 0.00 0.00 0.00 71 1012.0
20260905230904 70 59 0.0 0.0 0.00 0.00 0.00 70 1011.9
20260905230405 71 49 0.0 0.0 0.00 0.00 0.00 71 1011.9
20260905225904 71 49 0.0 0.0 0.00 0.00 0.00 70 1011.9
20260905225405 71 49 0.0 0.0 0.00 0.00 0.00 69 1011.9
20260905224904 72 73 0.0 0.0 0.00 0.00 0.00 73 1011.6
20260905223905 72 73 0.0 1.0 0.00 0.00 0.00 72 1011.7
20260905223404 73 73 0.0 0.0 0.00 0.00 0.00 73 1011.6
20260905222905 73 73 0.0 0.0 0.00 0.00 0.00 75 1011.5
20260905222404 73 73 0.0 0.0 0.00 0.00 0.00 73 1011.4
20260905221905 73 73 1.0 3.0 0.00 0.00 0.00 75 1011.3
20260905221404 74 51 0.0 0.0 0.00 0.00 0.00 73 1011.3
20260905220904 74 51 0.0 0.0 0.00 0.00 0.00 73 1011.3
20260905220404 74 51 0.0 1.0 0.00 0.00 0.00 73 1011.3
20260905215905 74 77 0.0 0.0 0.00 0.00 0.00 71 1011.1
20260905215404 74 77 0.0 0.0 0.00 0.00 0.00 76 1011.0
20260905214905 74 77 0.0 0.0 0.00 0.00 0.00 78 1011.0
20260905214405 74 82 0.0 0.0 0.00 0.00 0.00 77 1010.9
20260905213905 74 82 0.0 0.0 0.00 0.00 0.00 77 1011.0
20260905212905 75 49 0.0 0.0 0.00 0.00 0.00 76 1011.0
20260905211905 75 49 0.0 0.0 0.00 0.00 0.00 74 1010.8
20260905211404 75 49 0.0 0.0 0.00 0.00 0.00 75 1010.8
20260905210404 75 48 0.0 0.0 0.00 0.00 0.00 78 1010.8
20260905205904 75 48 0.0 0.0 0.00 0.00 0.00 78 1010.8
20260905205404 75 48 1.0 3.0 0.00 0.00 0.00 78 1010.8
20260905204905 75 64 0.0 0.0 0.00 0.00 0.00 79 1010.8
20260905204404 75 64 0.0 0.0 0.00 0.00 0.00 79 1010.9
20260905203904 75 64 0.0 0.0 0.00 0.00 0.00 78 1010.9
20260905203404 75 64 0.0 0.0 0.00 0.00 0.00 81 1010.9
20260905202904 75 64 0.0 0.0 0.00 0.00 0.00 80 1010.9
20260905202405 75 64 0.0 0.0 0.00 0.00 0.00 79 1011.0
20260905201904 75 64 0.0 0.0 0.00 0.00 0.00 79 1011.0
20260905201405 75 64 0.0 0.0 0.00 0.00 0.00 78 1011.0
20260905200404 75 64 0.0 0.0 0.00 0.00 0.00 78 1011.0
20260905195904 76 64 0.0 0.0 0.00 0.00 0.00 79 1011.0
20260905194905 76 64 0.0 0.0 0.00 0.00 0.00 77 1011.1
20260905193904 76 64 0.0 0.0 0.00 0.00 0.00 74 1011.1
20260905193405 76 64 0.0 0.0 0.00 0.00 0.00 78 1011.1
20260905192906 76 64 0.0 0.0 0.00 0.00 0.00 75 1011.1
20260905192404 76 64 0.0 0.0 0.00 0.00 0.00 77 1011.2
20260905191904 76 64 0.0 0.0 0.00 0.00 0.00 80 1011.1